Weather History for Jonesboro, AR

Change the Weather History Date:

Monday, May 26, 2014

  Actual Average Record
Temperature  
Mean Temperature 79 °F 72 °F  
Max Temperature 90 °F 83 °F 100 °F (1911)
Min Temperature 67 °F 61 °F 33 °F (1897)
Degree Days  
Heating Degree Days 0 0  
Month to date heating degree days 64 35  
Since 1 July heating degree days 4150 3650  
Cooling Degree Days 14 8  
Month to date cooling degree days 177 123  
Year to date cooling degree days 198 170  
Growing Degree Days 27 (Base 50)    
Moisture  
Dew Point 64 °F    
Average Humidity 68    
Maximum Humidity 93    
Minimum Humidity 43    
Precipitation  
Precipitation 0.00 in 0.12 in 4.15 in (1963)
Month to date precipitation 3.50 4.12  
Year to date precipitation 20.20 20.79  
Snow  
Snow 0.00 in 0.00 in - ()
Month to date snowfall 0.0 0.0  
Since 1 July snowfall 5.2 4.8  
Snow Depth 0.00 in    
Sea Level Pressure  
Sea Level Pressure 30.04 in    
Wind  
Wind Speed 5 mph (SSW)    
Max Wind Speed 17 mph    
Max Gust Speed 24 mph    
Visibility 9 miles    
Events      
T = Trace of Precipitation, MM = Missing Value Source: NWS Daily Summary

Daily Weather History Graph

Daily Weather History Graph

Search for Another Location

Airport:

Trip Planner

Search our weather history database for the weather conditions in past years. The results will help you decide how hot, cold, wet, or windy it might be!

Date:

Astronomy

May. 26, 2014 Rise Set
Actual Time 5:50 AM CDT 8:09 PM CDT
Civil Twilight 5:20 AM CDT 8:38 PM CDT
Nautical Twilight 4:44 AM CDT 9:14 PM CDT
Astronomical Twilight 4:05 AM CDT 9:54 PM CDT
Moon 4:27 AM CDT (5/26) 6:16 PM CDT (5/26)
Length of Visible Light 15h 17m
Length of Day
14h 19m
Waning Crescent, 5% of the Moon is Illuminated
May 26
Waning Crescent
May 28
New
Jun 5
First Quarter
Jun 12
Full
Jun 19
Last Quarter

Hourly Weather History & Observations

Time (CDT) Temp. Heat Index Dew Point Humidity Pressure Visibility Wind Dir Wind Speed Gust Speed Precip Events Conditions
12:53 AM 69.1 °F - 66.0 °F 90% 30.03 in 9.0 mi NE 3.5 mph - N/A   Clear
1:53 AM 69.1 °F - 66.9 °F 93% 30.03 in 7.0 mi NE 3.5 mph - N/A   Clear
2:53 AM 68.0 °F - 66.0 °F 93% 30.04 in 6.0 mi Calm Calm - N/A   Clear
3:53 AM 68.0 °F - 66.0 °F 93% 30.05 in 5.0 mi Calm Calm - N/A   Scattered Clouds
4:53 AM 68.0 °F - 66.0 °F 93% 30.06 in 8.0 mi Calm Calm - N/A   Partly Cloudy
5:53 AM 66.9 °F - 64.9 °F 93% 30.07 in 8.0 mi Calm Calm - N/A   Clear
6:53 AM 69.8 °F - 66.2 °F 88% 30.09 in 9.0 mi Calm Calm - N/A   Clear
7:53 AM 73.9 °F - 66.9 °F 79% 30.09 in 10.0 mi Calm Calm - N/A   Clear
8:53 AM 79.0 °F - 64.9 °F 62% 30.10 in 10.0 mi SSW 6.9 mph - N/A   Clear
9:53 AM 82.9 °F 84.4 °F 64.0 °F 53% 30.10 in 10.0 mi SW 6.9 mph - N/A   Clear
10:53 AM 84.9 °F 86.1 °F 64.0 °F 49% 30.09 in 10.0 mi SW 9.2 mph - N/A   Clear
11:53 AM 86.0 °F 86.8 °F 63.0 °F 46% 30.08 in 10.0 mi SSW 12.7 mph - N/A   Partly Cloudy
12:53 PM 87.1 °F 87.8 °F 63.0 °F 44% 30.06 in 10.0 mi SSW 8.1 mph 19.6 mph N/A   Clear
1:53 PM 88.0 °F 88.7 °F 63.0 °F 43% 30.04 in 10.0 mi South 15.0 mph - N/A   Partly Cloudy
2:53 PM 87.1 °F 87.5 °F 62.1 °F 43% 30.01 in 10.0 mi South 11.5 mph 19.6 mph N/A   Partly Cloudy
3:53 PM 88.0 °F 88.7 °F 63.0 °F 43% 30.00 in 10.0 mi South 12.7 mph 17.3 mph N/A   Clear
4:53 PM 88.0 °F 88.4 °F 62.1 °F 42% 30.00 in 10.0 mi SSW 11.5 mph 20.7 mph N/A   Clear
5:53 PM 87.1 °F 87.5 °F 62.1 °F 43% 29.99 in 10.0 mi South 11.5 mph - N/A   Clear
6:53 PM 84.9 °F 85.0 °F 61.0 °F 44% 29.99 in 10.0 mi South 10.4 mph - N/A   Clear
7:53 PM 81.0 °F 81.7 °F 61.0 °F 50% 29.99 in 10.0 mi South 5.8 mph - N/A   Clear
8:53 PM 78.1 °F - 62.1 °F 58% 30.01 in 10.0 mi SSW 3.5 mph - N/A   Clear
9:53 PM 73.4 °F - 64.4 °F 73% 30.04 in 10.0 mi Calm Calm - N/A   Clear
10:53 PM 72.0 °F - 64.0 °F 76% 30.04 in 10.0 mi Calm Calm - N/A   Clear
11:53 PM 72.0 °F - 64.0 °F 76% 30.04 in 10.0 mi Calm Calm - N/A   Clear